User: anonymous   Login
Location: Delta State University
(33.7460°N, 90.7320°W)
Time: 16:05:46
(UTC-05:00)
Language:

Iridium 13 - Orbit

View from above orbital plane
View from above orbital plane
View from above satellite
View from above satellite

Ground track
Ground track

The orbit data is extracted from the following two-line orbital elements,

1 24840U 97030E   16150.51315904 -.00000009  00000-0 -10349-4 0  9990
2 24840  86.3957 150.6106 0002305  80.0289 280.1167 14.34217306991953
Epoch (UTC): 29 May 2016 12:18:56
Eccentricity: 0.0002305
inclination: 86.3957°
perigee height: 776 km
apogee height: 779 km
right ascension of ascending node: 150.6106°
argument of perigee: 80.0289°
revolutions per day: 14.34217306
mean anomaly at epoch: 280.1167°
orbit number at epoch: 99195

The dashed part of the orbit path shows where the satellite is in the earth's shadow,  

DLR